STARLINK-37064, 68157

Orbit data source: Space-Track

STARLINK-37064, 68157 is a payload satellite owned by SpaceX/Seattle (US) in SSO that was launched on Fri, 13 Mar 2026 UTC via an FALCON 9 launch vehicle from the Air Force Western Test Range (AFWTR). Payload-class satellites include a variety of spacecraft equipped with specific instruments for various scientific and technological missions. These include communications satellites like Starlink; space stations such as the ISS; scientific satellites like the Hubble; Earth observation satellites from companies like Planet Labs, Umbra, and HawkEye 360; GPS; miniature CubeSats for education and research; and military/defense satellites.

Loading next visibility...
Identifier
68157, 2026-049R
Orbit
SSO
Country
Flag of USUS
Related business
Manufacturer
SpaceX/Seattle
Mission
Operational spacecraft
Bus & Motor
STARLINK V2MO, Unknown motor
Mass
575 kg wet, ~530 kg dry
Launch date (UTC)
2026-03-13 (3 months ago)
Launch vehicle
FALCON 9
Launch site
Air Force Western Test Range (AFWTR)
Object type
Payload
Rocket body
Debris
Shape & HBR
Unknown shape, 17.7 m
Radar Cross Section
Large (>1 m²)

Expand to show TLE details & history
Last TLE update: 23 hours ago

TLE from 23 hours ago
0 STARLINK-37064
1 68157U 26049R   26171.03127857  .00011273  00000-0  35088-3 0  9999
2 68157  97.2845 192.3571 0001257  88.4791 271.6596 15.33455204 15334
Epoch: 2026-06-20T00:45Z
TLE epoch observation values (Epoch: 2026-06-20T00:45:02.468Z)
Latitude
Longitude
-87.15493°
Altitude
468.6 km
Speed
7.632 km/s
True Right ascension
12h 49m 25s
True Declination
0° 00' 00"
Sunlit
Object was in daylight at epoch
Visualization orbit readout
Latitude
Unknown
Longitude
Unknown
Altitude
Unknown
Speed
Unknown
Apparent Right ascension
Unknown
Apparent Declination
Unknown
Sunlit
N/A
Visualization observer readout
Local Sidereal Time
10:19:04
Azimuth
Unknown
Elevation
Unknown
Doppler factor
Unknown
Orbital elements
Apogee altitude
463.315 km
Perigee altitude
461.596 km
Semi-major axis
6,840.593 km
Eccentricity
0.00013
Inclination
97.2845°
RAAN
192.3571°
Arg. of periapsis
88.4791°
True anomaly
271.6452°
Mean anomaly
271.6596°
Eccentric anomaly
271.6524°
Mean motion
3.83621 °/min
Orbital period
93.84 mins
BSTAR
0.00035088
Loading maneuver chart data...
Computing Atmospheric mass density...
Loading historical data...
Loading historical data...
Loading historical data...
Loading historical data...
Loading historical data...
Loading historical data...
Loading historical data...

Documentation

Showing up to 5 results
|